Regional Weather Roundup
Issued by NWS Cleveland, OH

Home | Current Version | Previous Version | Graphics & Text | Print | Product List | Glossary On
Versions: 1 2 3 4 5 6 7 8 9 10 11 12 13 14 15 16 17 18 19 20 21 22 23 24 25 26 27 28 29 30 31 32 33 34 35 36 37 38 39 40 41 42 43 44 45 46 47 48 49 50
000
ASUS41 KCLE 270910
RWRCLE
OHIO REGIONAL WEATHER ROUNDUP
NATIONAL WEATHER SERVICE WILMINGTON, OH
500 AM EDT THU JUL 27 2017

NOTE: "FAIR" INDICATES FEW OR NO CLOUDS BELOW 12,000 FEET WITH NO
SIGNIFICANT WEATHER AND/OR OBSTRUCTIONS TO VISIBILITY.

OHZ001>008-015>018-024>027-034-035-043-044-271000-
   NORTHWEST OHIO

CITY           SKY/WX    TMP DP  RH WIND       PRES   REMARKS
DEFIANCE       FAIR      69  63  81 S3        29.96R
FINDLAY        FAIR      68  62  81 S5        29.96F
TOLEDO EXPRESS FAIR      65  65 100 CALM      29.95F
TOLEDO EXEC    FAIR      67  66  97 SE3       29.96F
LIMA           FAIR      68  64  87 S6        29.97F
$$

OHZ009>014-019>023-028>033-038-089-271000-
   NORTHEAST OHIO

CITY           SKY/WX    TMP DP  RH WIND       PRES   REMARKS
CLE-HOPKINS    MOCLDY    68  64  87 SE3       29.99F
CLE-LAKEFRONT  FAIR      69  63  81 SE5       29.97S
CUY CO. ARPT   NOT AVBL
LORAIN-ELYRIA  FAIR      64  59  83 S3        29.99S
ASHTABULA      FAIR      64  64 100 CALM      30.01R
AKRON-CANTON   MOCLDY    67  62  84 CALM      30.00S
WOOSTER        FAIR      61  60  97 CALM      30.01S FOG
MANSFIELD      FAIR      64  63  96 CALM      30.00S
YOUNGSTOWN     CLOUDY    63  61  93 CALM      30.01S
$$

OHZ042-051>053-060>062-070>072-077>081-271000-
  SOUTHWEST OHIO

CITY           SKY/WX    TMP DP  RH WIND       PRES   REMARKS
CINC-COVINGTON CLOUDY    73  71  93 S5        29.96S
CINC-LUNKEN    FAIR      70  70 100 CALM      29.96S
HAMILTON       FAIR      70  70 100 CALM      29.96F
DAYTON         CLOUDY    69  64  84 SE6       29.97F
WRIGHT-PAT AFB CLOUDY    68  66  94 CALM      29.96F
DAYTON GENERAL FAIR      71  65  81 S6        29.96F
WILMINGTON     FAIR      69  65  86 SE5       29.97F
$$

OHZ036-037-039>041-045>050-054>059-063>069-073>076-082>088-271000-
  CENTRAL AND SOUTHEAST OHIO

CITY           SKY/WX    TMP DP  RH WIND       PRES   REMARKS
COLUMBUS       CLOUDY    69  65  86 CALM      29.98S
OSU AIRPORT    MOCLDY    69  65  86 CALM      29.98S
BOLTON FIELD   MOCLDY    65  64  96 CALM      29.99F
RICKENBACK AFB MOCLDY    66  63  90 CALM      29.98S
NEWARK         MOCLDY    64  62  93 CALM      29.99S FOG
MARION         FAIR      65  60  84 S6        29.98F
LANCASTER      FAIR      65  64  97 CALM      29.99F
ZANESVILLE     FAIR      63  61  93 CALM      30.00S
NEW PHILLY     FAIR      65  64  97 CALM      30.00F
$$




USA.gov is the U.S. government's official web portal to all federal, state and local government web resources and services.